Location: Roanoke
(37.2710°N, 79.9420°W)
Time: 08:51:52
(UTC-04:00)

Hubble Space Telescope - Visible Passes

Search period start: 25 March 2019 00:00
Search period end: 04 April 2019 00:00
Orbit: 537 x 540 km, 28.5° (Epoch: 24 March)

Date Brightness Start Highest point End Pass type
(mag) Time Alt. Az. Time Alt. Az. Time Alt. Az.
25 Mar 2.5 20:50:26 10° SSW 20:53:16 18° SSE 20:53:49 18° SSE visible
26 Mar 2.4 20:39:39 10° SW 20:42:42 20° S 20:44:06 17° SE visible
27 Mar 2.4 20:28:56 10° SW 20:32:07 21° S 20:34:20 14° SE visible
27 Mar 3.6 22:09:30 10° WSW 22:09:41 11° SW 22:09:41 11° SW visible
28 Mar 2.3 20:18:17 10° SW 20:21:33 23° S 20:24:32 11° SE visible
28 Mar 3.3 21:59:01 10° WSW 21:59:53 14° SW 21:59:53 14° SW visible
29 Mar 2.3 20:07:39 10° SW 20:10:59 24° S 20:14:19 10° ESE visible
29 Mar 3.0 21:48:35 10° WSW 21:50:02 16° SW 21:50:02 16° SW visible
30 Mar 2.9 21:38:12 10° SW 21:40:11 17° SSW 21:40:11 17° SSW visible
31 Mar 2.9 21:27:54 10° SW 21:30:20 16° SSW 21:30:20 16° SSW visible
01 Apr 3.0 21:17:43 10° SW 21:19:51 14° SSW 21:20:30 13° S visible
02 Apr 3.2 21:07:47 10° SW 21:09:16 12° SSW 21:10:40 10° S visible
